User: anonymous
Location: Ostrava
(49.8330°N, 18.2830°E)
Time: 20:16:29
(UTC+02:00)
Language:

NOAA 19 - Orbit

View from above orbital plane
View from above orbital plane
View from above satellite
View from above satellite

Ground track
Ground track

The orbit data is extracted from the following two-line orbital elements,

1 33591U 09005A   14264.46198207  .00000101  00000-0  79709-4 0  3957
2 33591 098.9535 209.2471 0013603 204.0541 289.5208 14.11765973289575
Epoch (UTC): 21 September 2014 11:05:15
Eccentricity: 0.0013603
inclination: 98.9535°
perigee height: 843 km
apogee height: 863 km
right ascension of ascending node: 209.2471°
argument of perigee: 204.0541°
revolutions per day: 14.11765973
mean anomaly at epoch: 289.5208°
orbit number at epoch: 28957

The dashed part of the orbit path shows where the satellite is in the earth's shadow,  

DLR